Location: Bonningues
(50.7927°N, 2.0150°E)
Time: 03:11:45
(UTC+00:00)

Cosmos 1140 Rocket - Pass Details

Date: 08 August 2020
Orbit: 745 x 767 km, 74.1° (Epoch: 25 September)

Event Time Altitude Azimuth Distance (km) Brightness Sun altitude
Rises 20:43:48 0° 190° (S) 3,220 6.4 -11.1°
Reaches altitude 10° 20:46:11 10° 187° (S) 2,299 5.6 -11.4°
Maximum altitude 20:51:18 59° 108° (ESE) 885 3.5 -12.0°
Drops below altitude 10° 20:56:28 10° 30° (NNE) 2,316 6.2 -12.5°
Sets 20:58:52 0° 27° (NNE) 3,246 7.0 -12.8°
